CZ-3C DEB (VEB), 38095

Orbit data source: Space-Track

CZ-3C DEB (VEB), 38095 is space debris in HEO originally from a launch on Fri, 24 Feb 2012 UTC launched from the Xichang Space Center, China (XSC). Debris objects in space refer to the collection of defunct objects orbiting the Earth. Examples of debris include non-operational satellites, rocket bodies, and fragments generated from explosions, collisions, or faulty payload assembly.

Loading next visibility...
Identifier
38095, 2012-008C
Orbit
HEO
Country
Flag of CNCN / PRC
Related business
Manufacturer
CALT
Mission
Spacecraft
Bus & Motor
Unknown
Mass
Unknown
Launch date (UTC)
2012-02-24 (14 years ago)
Launch vehicle
Unknown
Launch site
Xichang Space Center, China (XSC)
Object type
Payload
Rocket body
Debris
Shape & HBR
Cyl, 1.5 m
Radar Cross Section
5.890 m², Large (>1 m²)

Expand to show TLE details & history
Last TLE update: 3 days ago

TLE from 3 days ago
0 CZ-3C DEB (VEB)
1 38095U 12008C   26170.90148982  .00033976  00000-0  28644-2 0  9997
2 38095  21.0620   4.4885 6534935  78.1106 343.7730  3.30208699140018
Epoch: 2026-06-19T21:38Z
TLE epoch observation values (Epoch: 2026-06-19T21:38:08.720Z)
Latitude
-0.00007°
Longitude
131.83418°
Altitude
3,219.786 km
Speed
7.882 km/s
True Right ascension
00h 17m 58s
True Declination
0° 00' 00"
Sunlit
Object was in daylight at epoch
Visualization orbit readout
Latitude
Unknown
Longitude
Unknown
Altitude
Unknown
Speed
Unknown
Apparent Right ascension
Unknown
Apparent Declination
Unknown
Sunlit
N/A
Visualization observer readout
Local Sidereal Time
04:00:15
Azimuth
Unknown
Elevation
Unknown
Doppler factor
Unknown
Orbital elements
Apogee altitude
25,126.677 km
Perigee altitude
224.02 km
Semi-major axis
19,053.486 km
Eccentricity
0.65349
Inclination
21.062°
RAAN
4.4885°
Arg. of periapsis
78.1106°
True anomaly
282.13869°
Mean anomaly
343.773°
Eccentric anomaly
319.41278°
Mean motion
0.82524 °/min
Orbital period
436.24 mins
BSTAR
0.0028644
Loading maneuver chart data...
Computing Atmospheric mass density...
Loading historical data...
Loading historical data...
Loading historical data...
Loading historical data...
Loading historical data...
Loading historical data...
Loading historical data...

Documentation

Showing up to 5 results
|